Probability
4 4 5 5 3 2 2 2 1 1 1 0 0 0 0 0 0 1 4 8 9 9 9 7 3 2 1 1 1 0 0 0 0 0 1 1 1 2 3 4 3 3 3
7 7 9 10 9 8 10 8 6 5 4 1 0 0 0 0 0 0 2 5 8 10 10 9 5 3 1 0 0 0 0 1 1 1 3 4 4 5 6 5 5 5 5
17 17 17 20 23 26 29 26 21 17 13 7 3 2 1 1 1 1 1 2 5 7 9 11 9 5 2 0 0 0 1 2 2 2 4 6 8 8 8 7 7 8 9
29 32 34 37 44 49 51 47 41 35 28 19 12 7 6 6 5 3 1 2 3 3 7 12 14 9 4 1 1 1 1 2 1 1 3 5 7 8 7 7 8 9 10
43 49 53 54 57 61 60 56 52 48 39 29 18 13 11 10 9 7 5 4 3 3 6 10 12 9 6 2 1 0 0 0 0 0 1 3 4 4 4 4 5 7 7
57 60 62 59 57 56 52 49 49 45 39 30 19 13 11 10 9 9 9 8 6 4 4 6 6 6 4 2 0 0 0 0 0 0 0 1 2 2 2 1 3 5 6
59 58 57 53 48 44 39 37 37 33 28 23 18 14 11 8 7 7 7 7 5 3 2 3 3 3 2 1 0 0 0 0 0 0 0 0 0 1 0 0 1 3 5
49 46 43 40 36 32 28 24 22 19 16 14 14 15 13 9 5 3 2 2 2 1 1 1 1 1 1 0 0 0 0 0 0 0 0 0 0 0 0 0 1 2 3
32 30 26 24 23 22 19 15 12 10 8 7 8 10 10 9 5 1 0 0 0 0 0 0 0 0 0 0 0 0 0 0 0 0 0 0 0 0 0 0 0 1 1
15 14 12 12 12 12 11 9 7 7 6 5 4 3 3 3 2 1 0 0 0 0 0 0 0 0 0 0 0 0 0 0 0 0 0 0 0 0 0 0 0 0 0
7 6 5 5 5 5 5 5 5 5 5 4 2 0 0 0 0 0 0 0 0 0 0 0 0 0 0 0 0 0 0 0 0 0 0 0 0 0 0 0 0 0 0
5 4 3 3 3 3 3 3 3 3 2 1 0 0 0 0 0 0 0 0 0 0 0 0 0 0 0 0 0 0 0 0 0 0 0 0 0 0 0 0 0 0 0
3 3 2 2 2 2 2 1 1 1 0 0 0 0 0 0 0 0 0 0 0 0 0 0 0 0 0 0 0 0 0 0 0 0 0 0 0 0 0 0 0 0 0
1 1 1 1 1 1 1 0 0 0 0 0 0 0 0 0 0 0 0 0 0 0 0 0 0 0 0 0 0 0 0 0 0 0 0 0 0 0 0 0 0 0 0
0 0 0 0 0 0 0 0 0 0 0 0 0 0 0 0 0 0 0 0 0 0 0 0 0 0 0 0 0 0 0 0 0 0 0 0 0 0 0 0 0 0 0
0 0 0 0 0 0 0 0 0 0 0 0 0 0 0 0 0 0 0 0 0 0 0 0 0 0 0 0 0 0 0 0 0 0 0 0 0 0 0 0 0 0 0
0 0 0 0 0 0 0 0 0 0 0 0 0 0 0 0 0 0 0 0 0 0 0 0 0 0 0 0 0 0 0 0 0 0 0 0 0 0 0 0 0 0 0
0 0 0 0 0 0 0 0 0 0 0 0 0 0 0 0 0 0 0 0 0 0 0 0 0 0 0 0 0 0 0 0 0 0 0 0 0 0 0 0 0 0 0
0 0 0 0 0 0 0 0 0 0 0 0 0 0 0 0 0 0 0 0 0 0 0 0 0 0 0 0 0 0 0 0 0 0 0 0 0 0 0 0 0 0 0
0 0 0 0 0 0 0 0 0 0 0 0 0 0 0 0 0 0 0 0 0 0 0 0 0 0 0 0 0 0 0 0 0 0 0 0 0 0 0 0 0 0 0
0 0 0 0 0 0 0 0 0 0 0 0 0 0 0 0 0 0 0 0 0 0 0 0 0 0 0 0 0 0 0 0 0 0 0 0 0 0 0 0 0 0 0
0 0 0 0 0 0 0 0 0 0 0 0 0 0 0 0 0 0 0 0 0 0 0 0 0 0 0 0 0 0 0 0 0 0 0 0 0 0 0 0 0 0 0
0 0 0 0 0 0 0 0 0 0 0 0 0 0 0 0 0 0 0 0 0 0 0 0 0 0 0 0 0 0 0 0 0 0 0 0 0 0 0 0 0 0 0
0 0 0 0 0 0 0 0 0 0 0 0 0 0 0 0 0 0 0 0 0 0 0 0 0 0 0 0 0 0 0 0 0 0 0 0 0 0 0 0 0 0 0
0 0 0 0 0 0 0 0 0 0 0 0 0 0 0 0 0 0 0 0 0 0 0 0 0 0 0 0 0 0 0 0 0 0 0 0 0 0 0 0 0 0 0
0 0 0 0 0 0 0 0 0 0 0 0 0 0 0 0 0 0 0 0 0 0 0 0 0 0 0 0 0 0 0 0 0 0 0 0 0 0 0 0 0 0 0
Wind_Speed
6 5 4 3 5 3 5 5 5 4 5 6 6 6 6 5 5 4 6 11 9 9 10 11 10 10 10 9 8 7 7 7 6 6 5 5 5 5 5 5 5 4 4
5 5 5 5 5 4 3 4 4 4 5 4 5 4 5 4 4 4 3 9 9 7 8 8 9 9 8 8 7 7 6 6 6 5 5 5 5 5 5 5 4 4 3
6 5 5 5 4 3 3 4 4 4 4 4 4 3 3 4 2 3 4 4 7 8 6 5 5 6 6 6 6 6 6 5 5 5 5 5 4 4 4 4 4 3 3
6 5 5 4 3 3 3 3 3 4 3 4 3 2 2 2 3 3 3 3 3 4 7 6 4 4 4 4 4 5 5 5 5 5 5 5 5 4 4 4 4 3 3
5 4 3 2 2 3 3 3 3 3 3 3 3 2 2 2 2 3 2 3 2 2 3 7 5 4 3 2 3 4 4 4 5 5 6 6 6 6 5 5 5 4 4
3 3 2 2 3 3 2 3 2 2 2 2 3 2 2 1 2 1 2 2 2 3 3 2 4 4 4 2 1 2 3 4 5 5 6 7 8 7 7 7 7 7 6
4 4 2 2 2 3 3 4 3 3 2 1 2 3 2 2 1 1 1 2 2 1 1 2 2 1 3 5 3 1 3 4 6 7 8 8 8 8 9 9 9 9 9
3 3 2 2 2 2 3 3 3 3 2 2 2 3 4 4 3 1 1 1 0 1 1 1 1 0 1 1 5 3 4 5 7 9 9 9 9 9 10 11 11 11 11
3 2 2 1 1 2 2 3 4 5 3 2 1 2 3 4 3 3 1 1 1 1 0 1 1 1 0 1 0 5 6 7 7 8 8 8 8 9 10 11 12 12 13
5 4 4 2 2 1 1 0 1 1 3 3 2 1 2 3 1 2 3 2 1 0 1 1 0 1 1 1 3 6 7 7 7 8 9 9 9 10 11 12 13 14 14
6 6 6 5 4 4 4 4 4 3 2 1 2 1 1 1 1 2 2 2 1 1 0 0 1 1 1 1 1 6 7 7 8 8 9 10 11 11 12 13 14 15 16
6 9 8 8 7 6 6 6 6 7 5 5 3 3 1 1 1 1 2 2 2 2 1 1 2 1 1 2 1 6 6 6 7 9 10 11 13 13 14 14 15 16 17
7 9 9 9 8 8 8 8 8 8 7 6 5 4 3 3 2 2 2 2 3 3 3 4 3 2 3 3 2 5 7 6 8 10 11 12 14 14 15 16 17 18 18
8 10 10 10 10 9 9 8 7 7 7 7 7 6 3 3 3 3 3 4 5 5 5 4 2 4 3 5 3 5 9 5 7 11 13 14 15 16 16 17 18 18 19
9 11 11 11 10 10 9 8 8 7 7 6 6 5 4 3 3 4 4 4 6 7 6 2 4 3 4 5 4 8 10 7 9 13 15 15 16 16 17 18 18 19 20
10 11 11 10 10 9 9 8 7 7 6 6 4 5 5 4 4 3 4 4 5 7 8 5 5 6 6 8 7 9 11 10 15 16 15 14 15 16 18 18 19 19 20
10 10 9 9 9 9 8 7 7 6 6 5 5 5 4 5 5 5 4 4 5 5 7 7 6 6 7 10 9 10 11 11 10 10 10 12 14 17 18 18 19 19 19
9 9 9 9 8 8 7 7 7 6 6 5 5 5 5 4 5 5 5 6 5 6 8 9 8 8 9 10 10 11 11 9 10 7 9 13 15 17 17 17 18 17 17
9 8 8 8 7 7 6 6 6 6 6 6 6 6 6 6 6 6 7 6 6 6 6 8 9 8 9 8 10 10 11 9 11 9 9 14 15 16 16 15 16 16 15
8 7 7 6 6 7 7 7 6 6 6 6 6 6 6 6 7 7 6 6 7 8 8 8 8 8 8 8 8 9 9 8 9 11 11 10 10 13 17 17 17 17 15
7 6 6 6 6 6 9 10 8 7 7 7 6 6 6 5 6 7 8 9 9 8 8 8 8 9 8 8 8 8 9 9 10 9 9 9 8 9 9 11 14 14 12
6 6 6 6 6 7 7 9 11 9 8 7 7 7 6 3 3 7 8 9 10 11 11 10 9 9 11 10 9 8 9 9 8 7 9 10 9 9 8 7 2 4 8
5 5 6 6 6 8 6 7 9 10 8 7 8 8 7 6 7 8 7 9 11 13 13 11 12 11 11 10 10 11 10 10 10 9 9 10 9 8 8 5 2 6 8
4 5 5 6 5 7 6 7 12 10 7 7 7 7 7 7 7 9 12 12 11 8 6 8 9 10 10 9 10 11 11 10 11 9 7 8 8 8 9 6 2 5 8
4 4 4 5 5 6 6 7 12 9 6 7 7 6 7 7 7 9 12 12 11 9 5 8 10 12 13 13 12 9 8 8 8 7 5 5 7 9 9 7 3 4 8
4 4 4 4 5 5 5 6 11 8 8 8 7 5 0 4 8 10 11 11 11 10 10 8 8 9 10 10 12 10 7 7 7 6 4 5 6 6 6 6 7 7 5
Wind_Direction
206 200 210 219 232 220 209 231 245 232 242 230 233 240 247 237 243 229 152 160 179 191 194 193 193 196 198 198 199 202 206 209 210 210 210 214 217 220 222 225 226 228 231
209 213 213 211 229 230 245 247 243 242 244 253 244 238 251 240 217 235 198 156 167 178 185 189 190 194 195 193 194 196 201 206 209 208 209 212 216 217 220 220 221 222 226
209 220 227 217 224 226 226 246 250 252 248 238 239 242 244 251 213 214 225 187 166 159 157 168 174 186 196 195 194 194 197 198 199 202 207 208 207 207 210 214 216 216 219
219 227 234 232 226 231 229 232 243 246 247 248 237 232 229 211 211 204 214 203 187 163 143 127 134 158 179 191 199 203 204 203 205 208 211 211 211 207 207 209 210 209 210
223 231 246 258 254 250 247 243 228 247 250 256 245 226 242 242 217 205 212 216 171 192 160 129 131 131 156 186 206 213 216 219 223 224 225 226 225 218 214 213 213 212 213
204 219 227 245 255 249 237 238 230 251 273 262 258 234 248 250 249 216 225 208 196 208 212 177 183 153 142 151 195 236 242 243 245 245 246 244 238 229 223 222 223 224 224
189 192 205 199 224 236 233 226 222 212 232 250 241 232 217 222 224 220 247 239 190 212 232 210 230 215 155 139 102 14 307 284 275 268 264 261 254 241 234 233 233 233 231
166 170 182 197 203 220 230 223 202 202 204 215 238 240 229 206 194 196 236 228 245 215 217 159 68 42 302 230 96 46 353 322 299 287 282 276 266 257 249 243 241 239 237
107 107 133 168 186 208 216 214 215 208 197 191 254 251 245 238 170 150 137 73 47 7 314 61 82 59 343 334 62 69 29 7 342 319 305 299 289 274 267 260 255 249 245
76 77 77 75 72 62 68 106 221 214 197 180 146 35 2 356 269 186 170 149 113 66 40 355 30 73 42 11 75 59 37 17 2 346 334 324 315 301 285 276 269 265 259
60 68 73 71 68 64 59 59 58 55 58 93 118 117 92 48 309 261 224 194 195 186 114 330 342 340 32 348 319 53 27 6 354 344 334 326 316 308 301 292 283 276 271
53 55 63 63 60 60 59 61 61 64 60 61 57 56 48 20 349 314 274 253 252 234 229 255 240 233 272 279 6 34 349 337 333 328 322 316 309 302 297 293 290 285 280
64 57 59 59 59 59 58 60 63 59 59 62 55 51 45 32 5 333 299 289 274 254 230 237 229 245 260 283 294 12 300 301 308 310 309 306 303 299 294 290 288 287 285
69 66 64 61 57 57 58 55 57 54 53 54 52 41 30 30 360 343 326 310 291 269 235 236 250 260 293 294 10 306 288 274 292 299 298 297 296 294 292 289 287 285 284
73 68 66 63 57 52 52 55 55 47 44 40 41 35 17 14 351 346 330 314 305 297 285 246 262 276 289 299 313 296 297 299 298 290 288 288 289 289 287 287 285 284 282
70 68 66 64 61 55 50 49 55 46 44 39 29 25 4 356 349 329 320 313 307 303 301 307 297 300 320 305 293 295 290 282 262 259 263 274 281 284 284 284 283 282 281
73 70 67 64 60 56 52 50 48 42 39 33 20 18 5 346 332 326 316 308 304 303 298 298 300 302 299 294 301 299 293 288 282 245 244 264 275 279 281 281 281 281 280
73 73 70 67 62 57 51 46 40 35 28 21 11 358 348 338 329 314 316 309 309 309 296 302 304 303 301 297 295 296 292 292 295 280 241 253 265 270 273 274 276 277 278
76 73 70 67 62 57 51 43 33 26 19 11 2 351 343 335 325 332 318 314 312 305 300 296 297 301 296 298 300 292 294 296 295 295 258 246 252 256 260 263 266 269 269
80 76 72 66 59 49 38 27 22 17 7 2 357 343 340 339 336 330 314 315 312 307 298 292 294 298 297 301 300 303 307 309 309 307 301 292 271 249 249 252 255 259 262
76 70 64 58 49 48 31 9 357 2 356 351 347 341 347 347 338 324 322 325 316 310 306 303 303 304 306 314 313 317 311 309 304 301 304 300 294 286 279 255 245 252 259
59 52 46 40 38 46 37 5 341 343 343 342 341 336 324 281 321 276 274 289 298 300 308 306 303 306 309 312 317 311 305 305 305 310 307 303 303 303 304 300 279 249 265
50 39 31 27 38 63 35 0 342 323 331 342 336 330 327 347 313 325 308 276 265 250 256 283 294 300 305 312 314 307 304 304 302 304 302 302 308 309 304 303 251 266 273
32 24 17 16 21 64 40 358 332 306 327 334 330 326 324 324 353 342 319 308 305 297 272 266 286 295 301 309 305 298 297 296 293 292 303 305 314 316 313 312 248 249 266
16 8 20 9 8 62 49 0 333 319 334 333 327 329 326 327 32 341 309 305 311 314 274 247 262 272 278 276 277 289 295 296 303 316 339 318 317 320 314 317 322 257 267
356 353 18 6 7 30 67 9 338 326 340 333 326 322 320 337 342 321 309 310 314 322 321 305 273 259 259 253 241 257 287 301 311 315 339 319 310 323 314 318 331 328 320